OK1KZE-6 Weather Reports


time (UTC)temp
F
wind
direction
speed
knots
gust
knots
rain 1hr
in
rain 24hr
in
rain mn
in
humidity
%
barometer
mb
20260502182007 70 98 15.6 15.6 0.00 0.00 0.00 31 1020.7
20260502181507 70 98 15.6 15.6 0.00 0.00 0.00 31 1020.8
20260502181007 70 97 15.6 15.6 0.00 0.00 0.00 31 1020.7
20260502180508 70 98 16.5 17.4 0.00 0.00 0.00 31 1020.8
20260502170508 73 111 12.2 13.0 0.00 0.00 0.00 25 1021.5
20260502164007 73 95 13.9 13.9 0.00 0.00 0.00 26 1021.5
20260502163507 73 103 11.3 12.2 0.00 0.00 0.00 24 1021.1
20260502163008 73 101 13.9 15.6 0.00 0.00 0.00 25 1021.7
20260502162008 73 98 11.3 13.9 0.00 0.00 0.00 23 1021.8
20260502161508 74 99 13.0 14.8 0.00 0.00 0.00 24 1021.9
20260502161007 74 89 9.6 10.4 0.00 0.00 0.00 23 1022.0
20260502160508 73 96 13.0 13.9 0.00 0.00 0.00 24 1022.1
20260502152007 74 88 9.6 11.3 0.00 0.00 0.00 26 1022.2
20260502151508 30 0 0.0 0.0 0.00 0.00 0.00 100 1022.4
20260502151008 73 85 15.6 16.5 0.00 0.00 0.00 25 1022.3
20260502150507 73 85 15.6 16.5 0.00 0.00 0.00 25 1022.5
20260502130508 71 105 11.3 13.9 0.00 0.00 0.00 28 1023.9
20260502123507 71 95 9.6 11.3 0.00 0.00 0.00 30 1024.4
20260502122507 71 100 13.9 15.6 0.00 0.00 0.00 32 1024.7
20260502122008 71 89 12.2 13.9 0.00 0.00 0.00 29 1024.4
20260502121508 73 74 8.7 9.6 0.00 0.00 0.00 26 1024.4
20260502121009 71 108 5.2 8.7 0.00 0.00 0.00 27 1024.6
20260502120507 72 100 10.4 13.0 0.00 0.00 0.00 28 1024.7
20260502115507 70 88 12.2 14.8 0.00 0.00 0.00 29 1024.8
20260502115009 69 76 13.0 14.8 0.00 0.00 0.00 28 1024.8
20260502114509 70 101 14.8 16.5 0.00 0.00 0.00 28 1025.0
20260502114007 70 84 13.0 13.0 0.00 0.00 0.00 27 1025.1
20260502113508 70 73 10.4 11.3 0.00 0.00 0.00 28 1025.1
20260502113007 69 105 9.6 11.3 0.00 0.00 0.00 28 1025.3
20260502112507 69 84 13.0 13.0 0.00 0.00 0.00 28 1025.3
20260502112008 68 94 14.8 16.5 0.00 0.00 0.00 29 1025.5
20260502111508 68 116 11.3 14.8 0.00 0.00 0.00 31 1025.3
20260502111007 69 111 12.2 13.0 0.00 0.00 0.00 29 1025.3
20260502110508 69 102 10.4 13.0 0.00 0.00 0.00 30 1025.3
20260502110008 68 77 12.2 13.0 0.00 0.00 0.00 31 1025.5
20260502105508 68 92 11.3 11.3 0.00 0.00 0.00 31 1025.5
20260502105007 68 89 10.4 11.3 0.00 0.00 0.00 33 1025.6
20260502104508 68 89 10.4 11.3 0.00 0.00 0.00 33 1025.5
20260502104007 68 94 9.6 11.3 0.00 0.00 0.00 34 1025.8
20260502103507 68 86 12.2 12.2 0.00 0.00 0.00 34 1025.5
20260502103008 67 92 13.0 13.9 0.00 0.00 0.00 35 1025.9
20260502102508 69 94 14.8 16.5 0.00 0.00 0.00 34 1025.8
20260502102007 68 104 10.4 12.2 0.00 0.00 0.00 36 1025.9
20260502101508 68 99 10.4 12.2 0.00 0.00 0.00 35 1026.0
20260502101008 68 96 10.4 11.3 0.00 0.00 0.00 36 1026.1
20260502100508 68 91 9.6 10.4 0.00 0.00 0.00 37 1026.2
20260502091507 66 105 5.2 7.0 0.00 0.00 0.00 37 1026.7
20260502091008 65 101 12.2 13.9 0.00 0.00 0.00 39 1026.4
20260502090507 65 110 12.2 16.5 0.00 0.00 0.00 37 1026.4
20260502071507 58 124 10.4 11.3 0.00 0.00 0.00 57 1026.6
20260502071008 57 109 8.7 10.4 0.00 0.00 0.00 57 1026.7
20260502070507 55 121 10.4 13.0 0.00 0.00 0.00 58 1026.6
20260502070008 55 121 10.4 13.0 0.00 0.00 0.00 58 1026.9
20260502065508 55 116 10.4 12.2 0.00 0.00 0.00 58 1026.6
20260502065007 54 125 13.0 13.9 0.00 0.00 0.00 61 1026.6
20260502064508 54 110 10.4 13.0 0.00 0.00 0.00 63 1026.7
20260502064007 53 101 9.6 12.2 0.00 0.00 0.00 64 1026.5
20260502063508 52 108 11.3 13.0 0.00 0.00 0.00 65 1026.7
20260502063008 52 112 13.0 14.8 0.00 0.00 0.00 65 1026.6
20260502062508 52 109 12.2 13.0 0.00 0.00 0.00 65 1026.7
20260502062008 51 121 14.8 15.6 0.00 0.00 0.00 65 1026.7
20260502061508 51 116 13.0 13.9 0.00 0.00 0.00 66 1026.6
20260502061007 51 112 10.4 11.3 0.00 0.00 0.00 65 1026.5
20260502060508 53 103 10.4 11.3 0.00 0.00 0.00 62 1026.5
20260502060008 50 91 9.6 11.3 0.00 0.00 0.00 67 1026.6
20260502055507 50 98 10.4 12.2 0.00 0.00 0.00 66 1026.7
20260502055008 50 113 11.3 13.9 0.00 0.00 0.00 66 1026.4
20260502054508 49 119 10.4 13.0 0.00 0.00 0.00 68 1026.7
20260502054008 48 145 12.2 13.9 0.00 0.00 0.00 69 1026.6
20260502053508 48 140 12.2 15.6 0.00 0.00 0.00 69 1026.6
20260502053008 48 122 13.9 16.5 0.00 0.00 0.00 70 1026.7
20260502052507 47 136 12.2 13.9 0.00 0.00 0.00 72 1026.4
20260502052007 48 148 13.9 14.8 0.00 0.00 0.00 70 1026.5
20260502051507 48 138 13.0 15.6 0.00 0.00 0.00 70 1026.5
20260502051007 48 148 13.0 15.6 0.00 0.00 0.00 69 1026.5
20260502050508 48 148 14.8 16.5 0.00 0.00 0.00 68 1026.6
20260502050009 47 146 15.6 16.5 0.00 0.00 0.00 69 1026.8
20260502045507 48 148 14.8 15.6 0.00 0.00 0.00 67 1026.6
20260502045008 48 151 13.9 14.8 0.00 0.00 0.00 67 1026.9
20260502044507 47 138 14.8 15.6 0.00 0.00 0.00 69 1026.8
20260502043508 49 145 14.8 15.6 0.00 0.00 0.00 64 1026.9
20260502043008 49 136 14.8 14.8 0.00 0.00 0.00 64 1026.7
20260502042508 49 137 13.9 15.6 0.00 0.00 0.00 65 1026.6
20260502042007 49 143 13.9 15.6 0.00 0.00 0.00 65 1026.7
20260502041508 48 140 13.9 14.8 0.00 0.00 0.00 66 1026.7
20260502041008 49 139 13.9 14.8 0.00 0.00 0.00 65 1026.6
20260502040507 49 137 14.8 15.6 0.00 0.00 0.00 65 1026.5
20260502040007 50 136 13.9 14.8 0.00 0.00 0.00 63 1026.5
20260502035507 50 133 12.2 13.0 0.00 0.00 0.00 64 1026.8
20260502035007 50 141 12.2 12.2 0.00 0.00 0.00 64 1026.6
20260502034508 49 137 11.3 12.2 0.00 0.00 0.00 65 1026.6
20260502034008 50 133 11.3 12.2 0.00 0.00 0.00 64 1026.6
20260502033508 50 141 10.4 12.2 0.00 0.00 0.00 63 1026.6
20260502033008 51 145 11.3 13.0 0.00 0.00 0.00 61 1026.4
20260502032507 51 146 13.9 14.8 0.00 0.00 0.00 61 1026.6
20260502032007 51 145 13.0 14.8 0.00 0.00 0.00 61 1026.5
20260502031508 51 140 13.0 14.8 0.00 0.00 0.00 62 1026.4
20260502031008 51 147 12.2 13.9 0.00 0.00 0.00 61 1026.4
20260502030508 51 149 11.3 13.9 0.00 0.00 0.00 62 1026.3
20260502030009 50 150 12.2 13.0 0.00 0.00 0.00 62 1026.6
20260502025508 51 137 13.0 13.9 0.00 0.00 0.00 61 1026.2
20260502025008 51 139 12.2 13.9 0.00 0.00 0.00 60 1026.4
20260502024508 52 135 13.0 13.9 0.00 0.00 0.00 59 1026.4
20260502024007 52 132 12.2 13.0 0.00 0.00 0.00 59 1026.2
20260502023507 51 134 12.2 13.0 0.00 0.00 0.00 61 1026.2
20260502023008 51 126 10.4 12.2 0.00 0.00 0.00 60 1026.3
20260502022508 53 127 12.2 13.9 0.00 0.00 0.00 59 1026.4
20260502022007 53 123 12.2 13.0 0.00 0.00 0.00 57 1026.2
20260502021508 52 128 12.2 13.9 0.00 0.00 0.00 58 1026.3
20260502021007 53 120 11.3 12.2 0.00 0.00 0.00 57 1026.3
20260502020508 52 125 11.3 13.0 0.00 0.00 0.00 58 1026.3
20260502020008 54 118 11.3 12.2 0.00 0.00 0.00 55 1026.2
20260502015507 55 115 11.3 11.3 0.00 0.00 0.00 53 1026.3
20260502015007 53 115 8.7 9.6 0.00 0.00 0.00 56 1026.4
20260502014507 55 89 10.4 11.3 0.00 0.00 0.00 51 1026.5
20260502014007 55 94 9.6 9.6 0.00 0.00 0.00 51 1026.4
20260502013507 53 111 9.6 9.6 0.00 0.00 0.00 58 1026.6
20260502013008 56 91 8.7 9.6 0.00 0.00 0.00 51 1026.4
20260502012008 53 119 9.6 10.4 0.00 0.00 0.00 57 1026.4
20260502011508 55 122 8.7 8.7 0.00 0.00 0.00 54 1026.5
20260502011008 56 109 7.0 7.8 0.00 0.00 0.00 51 1026.7
20260502010508 54 116 7.8 8.7 0.00 0.00 0.00 54 1026.5
20260502005507 57 105 7.0 7.0 0.00 0.00 0.00 49 1026.8
20260502005008 55 138 7.0 7.8 0.00 0.00 0.00 55 1026.9
20260502004508 55 165 3.5 5.2 0.00 0.00 0.00 54 1026.7
20260502004007 55 141 6.1 6.1 0.00 0.00 0.00 54 1026.8
20260502003507 53 158 7.0 7.8 0.00 0.00 0.00 57 1026.8
20260502003008 53 161 7.0 7.8 0.00 0.00 0.00 58 1027.0
20260502002508 55 149 7.8 8.7 0.00 0.00 0.00 54 1026.8
20260502002007 54 150 7.0 7.0 0.00 0.00 0.00 56 1027.1
20260502001506 53 169 5.2 7.0 0.00 0.00 0.00 57 1026.9
20260502001008 54 169 4.3 4.3 0.00 0.00 0.00 56 1027.0
20260502000507 56 143 5.2 7.8 0.00 0.00 0.00 52 1027.1
20260502000008 54 140 6.1 7.0 0.00 0.00 0.00 55 1027.2
20260501235507 55 175 4.3 4.3 0.00 0.00 0.00 54 1026.8
20260501235008 56 166 3.5 5.2 0.00 0.00 0.00 52 1027.0
20260501234507 53 169 5.2 6.1 0.00 0.00 0.00 57 1027.1
20260501234008 53 173 5.2 6.1 0.00 0.00 0.00 58 1027.3
20260501233507 55 162 5.2 7.8 0.00 0.00 0.00 56 1027.2
20260501233007 54 172 5.2 7.0 0.00 0.00 0.00 56 1027.1
20260501232507 55 149 7.0 7.0 0.00 0.00 0.00 53 1027.0
20260501232007 56 150 5.2 7.0 0.00 0.00 0.00 52 1027.4
20260501231507 55 155 6.1 10.4 0.00 0.00 0.00 54 1027.0
20260501231008 57 152 5.2 6.1 0.00 0.00 0.00 51 1027.2
20260501230508 58 116 6.1 7.0 0.00 0.00 0.00 48 1027.4
20260501230008 58 137 4.3 5.2 0.00 0.00 0.00 48 1027.4
20260501225507 58 134 7.0 8.7 0.00 0.00 0.00 48 1027.3
20260501225008 58 128 5.2 7.0 0.00 0.00 0.00 48 1027.3
20260501224508 56 146 5.2 7.0 0.00 0.00 0.00 53 1027.5
20260501224007 57 159 4.3 5.2 0.00 0.00 0.00 52 1027.6
20260501223508 59 150 4.3 5.2 0.00 0.00 0.00 48 1027.4
20260501223008 57 165 3.5 4.3 0.00 0.00 0.00 49 1027.4
20260501222508 58 162 4.3 5.2 0.00 0.00 0.00 49 1027.3
20260501222008 60 95 7.0 8.7 0.00 0.00 0.00 45 1027.4
20260501221508 60 86 7.0 8.7 0.00 0.00 0.00 44 1027.4
20260501221008 58 119 5.2 5.2 0.00 0.00 0.00 48 1027.6
20260501220008 61 99 6.1 7.0 0.00 0.00 0.00 43 1027.6
20260501215508 60 112 5.2 5.2 0.00 0.00 0.00 45 1027.6
20260501215008 61 120 5.2 5.2 0.00 0.00 0.00 44 1027.6
20260501214506 61 94 6.1 7.8 0.00 0.00 0.00 43 1027.4
20260501213507 60 121 5.2 6.1 0.00 0.00 0.00 44 1027.4
20260501213007 61 136 5.2 6.1 0.00 0.00 0.00 44 1027.4
20260501212507 60 92 7.0 7.8 0.00 0.00 0.00 44 1027.3
20260501212008 60 89 7.0 7.8 0.00 0.00 0.00 43 1027.7
20260501211507 61 89 7.0 7.8 0.00 0.00 0.00 42 1027.6
20260501211008 62 107 4.3 5.2 0.00 0.00 0.00 43 1027.6
20260501210508 62 100 6.1 6.1 0.00 0.00 0.00 42 1027.6
20260501210007 62 94 5.2 5.2 0.00 0.00 0.00 42 1027.5
20260501205508 61 116 3.5 6.1 0.00 0.00 0.00 44 1027.5
20260501205007 60 159 3.5 3.5 0.00 0.00 0.00 46 1027.5
20260501204509 62 121 4.3 4.3 0.00 0.00 0.00 43 1027.4
20260501204007 62 83 5.2 6.1 0.00 0.00 0.00 41 1027.8
20260501203508 62 97 3.5 4.3 0.00 0.00 0.00 42 1027.8
20260501203007 61 144 2.6 3.5 0.00 0.00 0.00 45 1027.5
20260501202007 63 78 8.7 9.6 0.00 0.00 0.00 40 1027.6
20260501201508 63 79 6.1 7.8 0.00 0.00 0.00 41 1027.5
20260501201008 62 94 3.5 4.3 0.00 0.00 0.00 42 1027.7
20260501200508 63 91 4.3 6.1 0.00 0.00 0.00 42 1027.6
20260501200007 63 87 4.3 5.2 0.00 0.00 0.00 42 1027.6
20260501195507 63 56 7.0 7.8 0.00 0.00 0.00 41 1027.6
20260501195008 63 75 5.2 5.2 0.00 0.00 0.00 42 1027.7
20260501194508 63 80 3.5 3.5 0.00 0.00 0.00 42 1027.5
20260501194008 63 71 5.2 5.2 0.00 0.00 0.00 41 1027.8
20260501193507 64 86 2.6 3.5 0.00 0.00 0.00 41 1027.8
20260501193008 63 67 1.7 2.6 0.00 0.00 0.00 42 1027.9
20260501192508 63 84 2.6 3.5 0.00 0.00 0.00 42 1027.6
20260501192007 63 87 1.7 2.6 0.00 0.00 0.00 43 1027.7
20260501191508 63 74 1.7 2.6 0.00 0.00 0.00 42 1027.8
20260501191009 64 87 1.7 2.6 0.00 0.00 0.00 41 1027.9
20260501190508 64 84 1.7 1.7 0.00 0.00 0.00 41 1027.6
20260501190007 64 94 0.9 0.9 0.00 0.00 0.00 41 1027.6
20260501185507 64 94 0.9 0.9 0.00 0.00 0.00 41 1027.6
20260501185008 64 110 0.9 1.7 0.00 0.00 0.00 41 1027.5
20260501184508 64 74 0.9 0.9 0.00 0.00 0.00 41 1027.6
20260501184008 64 53 1.7 2.6 0.00 0.00 0.00 41 1027.6
20260501183508 64 39 1.7 1.7 0.00 0.00 0.00 40 1027.6
20260501183008 64 61 0.0 1.7 0.00 0.00 0.00 41 1027.6
20260501182507 64 120 0.9 1.7 0.00 0.00 0.00 41 1027.5